Regional Weather Roundup
Issued by NWS

Home | Current Version | Previous Version | Graphics & Text | Print | Product List | Glossary On
Versions: 1 2 3 4 5 6 7 8 9 10 11 12 13 14 15 16 17 18 19 20 21 22 23 24 25 26
000
ASUS45 KPSR 130410
RWRAZ

ARIZONA HOURLY REGIONAL WEATHER ROUNDUP
NATIONAL WEATHER SERVICE PHOENIX AZ
900 PM MST TUE DEC 12 2017

NOTE: FAIR INDICATES FEW OR NO CLOUDS BELOW 12,000 FEET WITH NO
SIGNIFICANT WEATHER AND/OR OBSTRUCTIONS TO VISIBILITY.

AZZ001>003-036-130500-
NORTHWEST ARIZONA

CITY           SKY/WX    TMP DP  RH WIND       PRES   REMARKS
BULLHEAD CITY  CLEAR     64   1   8 N14       30.11S
KINGMAN        CLEAR     42   2  18 E8        30.21S
$$

AZZ004>008-015-016-018-130500-
NORTH CENTRAL ARIZONA

CITY           SKY/WX    TMP DP  RH WIND       PRES   REMARKS
GRAND CANYON   MOCLDY    31   8  38 CALM      30.32F
WILLIAMS       PTCLDY    30   1  29 S8        30.30S WCI  23
PRESCOTT       PTCLDY    36   2  23 CALM      30.25S
FLAGSTAFF      PTCLDY    23  -2  33 CALM      30.33F
PAYSON         CLEAR     48  -4  11 E6        30.25S
PAGE           MOCLDY    38  15  39 CALM      30.31F HAZE
$$

AZZ009>014-017-130500-
NORTHEAST ARIZONA

CITY           SKY/WX    TMP DP  RH WIND       PRES   REMARKS
WINSLOW        MOCLDY    25  -6  25 SW7       30.31F WCI  17
SAINT JOHNS    CLEAR     30  -5  21 S6        30.31S WCI  24
WINDOW ROCK    CLEAR     23  -4  30 CALM      30.33F
SHOW LOW       CLEAR     27  -6  24 CALM      30.34S
$$

AZZ540-542>544-546-548-130500-
GREATER PHOENIX AREA

CITY           SKY/WX    TMP DP  RH WIND       PRES   REMARKS
PHOENIX        MOCLDY    64  10  12 E8        30.07R
BUCKEYE        MOCLDY    54   1  12 N7        30.08S
DEER VALLEY    PTCLDY    61   4  10 NE7       30.09S
SCOTTSDALE     PTCLDY    61  12  14 NE5       30.11R
MESA-GATEWAY   PTCLDY    57   7  13 NE6       30.10R
CHANDLER       CLEAR     57  14  18 N6        30.09S
$$

AZZ539-553-130500-
SOUTHWEST MARICOPA COUNTY AND PINAL COUNTY

CITY           SKY/WX    TMP DP  RH WIND       PRES   REMARKS
CASA GRANDE    NOT AVBL
GILA BEND      MOCLDY    61   3  10 CALM      30.05S
$$

AZZ503-504-507>509-130500-
SOUTHEAST ARIZONA

CITY           SKY/WX    TMP DP  RH WIND       PRES   REMARKS
TUCSON         PTCLDY    61   8  12 SE12      30.13F
DAVIS-MONTHAN  PTCLDY    55   8  15 SE7       30.11F
NOGALES        CLEAR     56  16  20 NE6       30.16S
SIERRA VISTA   CLEAR     49  16  26 SE10      30.23S
DOUGLAS        CLEAR     52  19  27 E12       30.22F
SAFFORD        PTCLDY    45   4  18 E10       30.23F
$$

AZZ532-130500-
SOUTHWEST ARIZONA

CITY           SKY/WX    TMP DP  RH WIND       PRES   REMARKS
YUMA           MOCLDY    66   5   9 N8        30.05F
$$

CAZ041-043-047-048-061-525>527-560>570-130500-
SOUTHERN CALIFORNIA

CITY           SKY/WX    TMP DP  RH WIND       PRES   REMARKS
DOWNTOWN L.A.  CLEAR     60  37  42 CALM      30.04S
L.A. AIRPORT   CLEAR     63  48  58 CALM      30.04S
SAN DIEGO      CLEAR     65  23  20 CALM      30.05S
BURBANK        CLEAR     60  19  20 E3        30.05S
ONTARIO        PTCLDY    60  17  18 N6        30.06F
RIVERSIDE      CLEAR     70  -2   6 E5        30.07F
PALM SPRINGS   CLEAR     63  16  16 NW5       30.10F
EL CENTRO NAS  PTCLDY    53   3  13 W6        30.09S
IMPERIAL       CLEAR     58  13  17 CALM      30.07R
BLYTHE         PTCLDY    61  -4   7 W5        30.09S
NEEDLES        CLEAR     56   0  10 SW12      30.12S
$$

NVZ020-UTZ003-130500-
SOUTHERN NEVADA-UTAH

CITY           SKY/WX    TMP DP  RH WIND       PRES   REMARKS
LAS VEGAS      CLEAR     53   0  11 CALM      30.18S
SALT LAKE CITY FOG       25  23  92 CALM      30.43S VSB 1
$$

NMZ009-TXZ055-130500-
NEW MEXICO-WEST TEXAS

CITY           SKY/WX    TMP DP  RH WIND       PRES   REMARKS
ALBUQUERQUE    CLOUDY    38   3  23 SE6       30.30F WCI  33
EL PASO        CLEAR     44  20  38 CALM      30.29S
$$


........................KEY........................
SKY/WX - SKY CONDITION/WEATHER
TMP    - TEMPERATURE IN FAHRENHEIT
DP     - DEW POINT IN FAHRENHEIT
RH     - RELATIVE HUMIDITY IN PERCENT
WIND   - DIRECTION AND SPEED IN MILES PER HOUR (MPH)
VRB    - VARIABLE WIND DIRECTION
PRES   - MEAN SEA LEVEL PRESSURE IN INCHES OF MERCURY
         F - FALLING PRESSURE   R - RISING PRESSURE
         S - STEADY PRESSURE
VSB    - VISIBILITY IN MILES
HX     - HEAT INDEX IN FAHRENHEIT
WCI    - WIND CHILL INDEX IN FAHRENHEIT
TC     - TEMPERATURE IN CELSIUS WHICH IS ALSO KNOWN AS
         TEMPERATURE IN CENTIGRADE
AFB    - AIR FORCE BASE
         LUKE AFB IS LUKE AIR FORCE BASE
         DAVIS-MONTHAN IS DAVIS-MONTHAN AIR FORCE BASE
NAS    - NAVAL AIR STATION
         EL CENTRO NAS IS EL CENTRO NAVAL AIR STATION
N/A    - NOT AVAILABLE





USA.gov is the U.S. government's official web portal to all federal, state and local government web resources and services.